User: anonymous   Login
Location: Bamobli
(6.6379°N, 10.9396°W)
Time: 08:33:05
(UTC+00:00)
Language:

PSAT 2 - Orbit

View from above orbital plane
View from above orbital plane
View from above satellite
View from above satellite

Ground track
Ground track

The orbit data is extracted from the following two-line orbital elements,

1 44354U 19036R   21130.90616050  .00007218  00000-0  92553-4 0  9999
2 44354  28.5312  17.1982 0328595 229.2262 127.9375 15.12680367103285
Epoch (UTC): 10 May 2021 21:44:52
Eccentricity: 0.0328595
inclination: 28.5312°
perigee height: 301 km
apogee height: 755 km
right ascension of ascending node: 17.1982°
argument of perigee: 229.2262°
revolutions per day: 15.12680367
mean anomaly at epoch: 127.9375°
orbit number at epoch: 10328

The dashed part of the orbit path shows where the satellite is in the earth's shadow,  

DLR